OE6NPC-WX Weather Reports


Display with metric or nautical units.
time (UTC)temp
F
wind
direction
speed
MPH
gust
MPH
rain 1hr
in
rain 24hr
in
rain mn
in
humidity
%
barometer
mb
20260506145613 74 0.0 0.0 0.00 0.00 0.00 40 955.9
20260506144608 74 0.0 0.0 0.00 0.00 0.00 40 955.9
20260506143604 74 0.0 0.0 0.00 0.00 0.00 41 956.0
20260506142559 74 0.0 0.0 0.00 0.00 0.00 42 955.9
20260506141555 74 0.0 0.0 0.00 0.00 0.00 42 956.0
20260506140550 74 0.0 0.0 0.00 0.00 0.00 42 956.1
20260506135546 74 0.0 0.0 0.00 0.00 0.00 42 956.2
20260506134542 74 0.0 0.0 0.00 0.00 0.00 42 956.3
20260506133538 74 0.0 0.0 0.00 0.00 0.00 42 956.3
20260506132533 74 0.0 0.0 0.00 0.00 0.00 42 956.3
20260506131529 74 0.0 0.0 0.00 0.00 0.00 42 956.4
20260506130525 74 0.0 0.0 0.00 0.00 0.00 41 956.5
20260506125521 75 0.0 0.0 0.00 0.00 0.00 40 956.6
20260506124516 75 0.0 0.0 0.00 0.00 0.00 39 956.5
20260506123512 75 0.0 0.0 0.00 0.00 0.00 39 956.4
20260506122508 75 0.0 0.0 0.00 0.00 0.00 38 956.4
20260506121503 75 0.0 0.0 0.00 0.00 0.00 37 956.4
20260506120459 75 0.0 0.0 0.00 0.00 0.00 39 956.6
20260506115454 75 0.0 0.0 0.00 0.00 0.00 39 956.5
20260506114449 75 0.0 0.0 0.00 0.00 0.00 38 956.5
20260506113444 75 0.0 0.0 0.00 0.00 0.00 37 956.4
20260506112440 75 0.0 0.0 0.00 0.00 0.00 37 956.4
20260506111435 75 0.0 0.0 0.00 0.00 0.00 35 956.6
20260506110431 75 0.0 0.0 0.00 0.00 0.00 35 956.7
20260506105426 75 0.0 0.0 0.00 0.00 0.00 35 956.8
20260506104421 75 0.0 0.0 0.00 0.00 0.00 36 957.0
20260506103416 74 0.0 0.0 0.00 0.00 0.00 37 956.9
20260506102412 74 0.0 0.0 0.00 0.00 0.00 38 957.0
20260506101407 74 0.0 0.0 0.00 0.00 0.00 37 957.0
20260506100403 74 0.0 0.0 0.00 0.00 0.00 37 957.1
20260506095359 74 0.0 0.0 0.00 0.00 0.00 36 957.2
20260506094355 75 0.0 0.0 0.00 0.00 0.00 35 957.3
20260506093351 75 0.0 0.0 0.00 0.00 0.00 36 957.5
20260506092347 75 0.0 0.0 0.00 0.00 0.00 36 957.6
20260506091342 75 0.0 0.0 0.00 0.00 0.00 36 957.6
20260506090338 76 0.0 0.0 0.00 0.00 0.00 37 957.6
20260506085334 76 0.0 0.0 0.00 0.00 0.00 35 957.7
20260506084330 76 0.0 0.0 0.00 0.00 0.00 36 957.7
20260506083326 76 0.0 0.0 0.00 0.00 0.00 37 957.8
20260506082322 76 0.0 0.0 0.00 0.00 0.00 37 957.9
20260506081318 76 0.0 0.0 0.00 0.00 0.00 38 957.9
20260506080314 76 0.0 0.0 0.00 0.00 0.00 37 957.9
20260506073301 74 0.0 0.0 0.00 0.00 0.00 40 957.9
20260506072257 73 0.0 0.0 0.00 0.00 0.00 39 958.0
20260506071253 73 0.0 0.0 0.00 0.00 0.00 41 958.0
20260506070249 72 0.0 0.0 0.00 0.00 0.00 41 958.0
20260506062232 69 0.0 0.0 0.00 0.00 0.00 45 958.0
20260506061228 69 0.0 0.0 0.00 0.00 0.00 46 958.1
20260506060224 68 0.0 0.0 0.00 0.00 0.00 46 958.1
20260506051203 62 0.0 0.0 0.00 0.00 0.00 56 958.0
20260506050158 60 0.0 0.0 0.00 0.00 0.00 62 958.2
20260506044150 55 0.0 0.0 0.00 0.00 0.00 71 958.0
20260506043146 54 0.0 0.0 0.00 0.00 0.00 72 957.9
20260506042142 54 0.0 0.0 0.00 0.00 0.00 72 957.9
20260506041138 54 0.0 0.0 0.00 0.00 0.00 72 957.8
20260506040133 53 0.0 0.0 0.00 0.00 0.00 72 957.8
20260506035129 53 0.0 0.0 0.00 0.00 0.00 73 957.8
20260506034125 53 0.0 0.0 0.00 0.00 0.00 73 957.9
20260506033121 53 0.0 0.0 0.00 0.00 0.00 74 957.9
20260506032117 53 0.0 0.0 0.00 0.00 0.00 74 957.9
20260506031112 53 0.0 0.0 0.00 0.00 0.00 75 957.9
20260506030108 53 0.0 0.0 0.00 0.00 0.00 75 957.9
20260506025104 53 0.0 0.0 0.00 0.00 0.00 75 957.7
20260506024059 53 0.0 0.0 0.00 0.00 0.00 75 957.7
20260506023055 53 0.0 0.0 0.00 0.00 0.00 74 957.6
20260506022051 54 0.0 0.0 0.00 0.00 0.00 73 957.7
20260506021047 54 0.0 0.0 0.00 0.00 0.00 73 957.6
20260506020042 54 0.0 0.0 0.00 0.00 0.00 75 957.4
20260506015039 54 0.0 0.0 0.00 0.00 0.00 75 957.4
20260506014034 54 0.0 0.0 0.00 0.00 0.00 74 957.4
20260506013030 54 0.0 0.0 0.00 0.00 0.00 73 957.1
20260506012026 54 0.0 0.0 0.00 0.00 0.00 74 957.0
20260506011021 54 0.0 0.0 0.00 0.00 0.00 74 956.9
20260506010017 54 0.0 0.0 0.00 0.00 0.00 74 956.9
20260506005012 54 0.0 0.0 0.00 0.00 0.00 73 956.9
20260506004008 54 0.0 0.0 0.00 0.00 0.00 73 956.8
20260506003003 54 0.0 0.0 0.00 0.00 0.00 74 956.8
20260506001959 54 0.0 0.0 0.00 0.00 0.00 74 956.8
20260506000954 54 0.0 0.0 0.00 0.00 0.00 74 956.8
20260505235949 54 0.0 0.0 0.00 0.00 0.00 71 956.9
20260505234945 54 0.0 0.0 0.00 0.00 0.00 71 956.8
20260505233940 55 0.0 0.0 0.00 0.00 0.00 70 956.8
20260505232936 55 0.0 0.0 0.00 0.00 0.00 70 957.0
20260505231931 55 0.0 0.0 0.00 0.00 0.00 69 956.9
20260505230926 55 0.0 0.0 0.00 0.00 0.00 67 957.0
20260505225922 56 0.0 0.0 0.00 0.00 0.00 68 957.0
20260505224917 56 0.0 0.0 0.00 0.00 0.00 70 957.0
20260505223912 56 0.0 0.0 0.00 0.00 0.00 68 957.0
20260505222908 56 0.0 0.0 0.00 0.00 0.00 68 957.0
20260505221903 57 0.0 0.0 0.00 0.00 0.00 67 957.1
20260505220858 57 0.0 0.0 0.00 0.00 0.00 65 957.1
20260505215854 57 0.0 0.0 0.00 0.00 0.00 64 957.0
20260505214849 58 0.0 0.0 0.00 0.00 0.00 64 956.9
20260505213845 58 0.0 0.0 0.00 0.00 0.00 64 956.9
20260505212840 58 0.0 0.0 0.00 0.00 0.00 63 956.9
20260505211836 59 0.0 0.0 0.00 0.00 0.00 62 956.8
20260505210832 59 0.0 0.0 0.00 0.00 0.00 61 956.8
20260505205828 60 0.0 0.0 0.00 0.00 0.00 60 956.8
20260505204824 60 0.0 0.0 0.00 0.00 0.00 59 956.7
20260505203820 60 0.0 0.0 0.00 0.00 0.00 58 956.7
20260505202816 61 0.0 0.0 0.00 0.00 0.00 57 956.7
20260505201811 61 0.0 0.0 0.00 0.00 0.00 56 956.7
20260505200807 61 0.0 0.0 0.00 0.00 0.00 56 956.7
20260505195803 61 0.0 0.0 0.00 0.00 0.00 55 956.8
20260505194759 62 0.0 0.0 0.00 0.00 0.00 54 956.7
20260505193755 62 0.0 0.0 0.00 0.00 0.00 53 956.8
20260505192751 62 0.0 0.0 0.00 0.00 0.00 52 956.7
20260505191746 63 0.0 0.0 0.00 0.00 0.00 51 956.5
20260505190742 63 0.0 0.0 0.00 0.00 0.00 50 956.7
20260505185738 64 0.0 0.0 0.00 0.00 0.00 49 956.8
20260505184734 64 0.0 0.0 0.00 0.00 0.00 48 956.5
20260505183730 65 0.0 0.0 0.00 0.00 0.00 48 956.5
20260505182725 65 0.0 0.0 0.00 0.00 0.00 47 956.4
20260505181721 65 0.0 0.0 0.00 0.00 0.00 46 956.3
20260505180717 66 0.0 0.0 0.00 0.00 0.00 46 956.3
20260505175713 66 0.0 0.0 0.00 0.00 0.00 45 956.3
20260505174709 66 0.0 0.0 0.00 0.00 0.00 44 956.1
20260505173705 67 0.0 0.0 0.00 0.00 0.00 44 956.0
20260505172701 67 0.0 0.0 0.00 0.00 0.00 44 956.2
20260505171656 67 0.0 0.0 0.00 0.00 0.00 43 956.0
20260505170652 68 0.0 0.0 0.00 0.00 0.00 43 956.2
20260505165648 68 0.0 0.0 0.00 0.00 0.00 42 956.2
20260505164644 68 0.0 0.0 0.00 0.00 0.00 42 956.3
20260505163640 69 0.0 0.0 0.00 0.00 0.00 41 956.5
20260505162635 69 0.0 0.0 0.00 0.00 0.00 41 956.8
20260505161631 69 0.0 0.0 0.00 0.00 0.00 40 956.8
20260505160627 70 0.0 0.0 0.00 0.00 0.00 39 957.0
20260505152611 72 0.0 0.0 0.00 0.00 0.00 37 956.9
20260505151606 72 0.0 0.0 0.00 0.00 0.00 36 956.9
20260505150602 72 0.0 0.0 0.00 0.00 0.00 37 957.0